Regional Weather Roundup
Issued by NWS Northern Indiana

Home | Current Version | Previous Version | Graphics & Text | Print | Product List | Glossary On
Versions: 1 2 3 4 5 6 7 8 9 10 11 12 13 14 15 16 17 18 19 20 21 22 23 24 25 26 27 28 29 30 31 32 33 34 35 36 37 38 39 40 41 42 43 44 45 46 47 48 49 50
000
ASUS43 KIWX 190910
RWRIWX

KIWX WEATHER ROUNDUP
NATIONAL WEATHER SERVICE NORTHERN INDIANA
500 AM EDT SAT APR 19 2014

NOTE: "FAIR" INDICATES FEW OR NO CLOUDS BELOW 12,000 FEET WITH NO
SIGNIFICANT WEATHER AND/OR OBSTRUCTIONS TO VISIBILITY.

* THESE STATIONS ARE NOT UNDER NWS QUALITY CONTROL. THEY ALSO MAY NOT
  REPORT WEATHER SUCH AS PRECIPITATION OR FOG.

INZ001>027-191000-
NORTHERN INDIANA

CITY           SKY/WX    TMP DP  RH WIND       PRES   REMARKS
GARY*          CLEAR     38  33  81 N6        30.36R
VALPARAISO     CLEAR     32  26  78 NE6       30.34S WCI  26
MICHIGAN CITY* CLEAR     30  28  93 CALM      30.35S
LAPORTE*       CLEAR     36  28  73 NE6       30.34S
SOUTH BEND     CLEAR     35  27  72 NE3       30.35S
GOSHEN         CLEAR     38  31  76 NE8       30.33S
MONTICELLO*    CLEAR     37  27  67 NE6       30.31S
LOGANSPORT*    CLEAR     34  27  75 N5        30.32S WCI  30
ROCHESTER*     CLEAR     37  28  70 NE3       30.33R
WARSAW*        CLEAR     36  30  80 NE6       30.33S
ANGOLA*        CLEAR     37  34  87 NE5       30.34R
FORT WAYNE     CLEAR     39  32  76 NE7       30.33R
HUNTINGTON*    FAIR      38  32  78 NE5       30.32R
PERU/GRISSOM   CLEAR     35  31  84 N8        30.30S WCI  29
MARION*        CLEAR     41  32  70 NE8       30.30S

$$
INZ028>050-191000-
CENTRAL INDIANA

CITY           SKY/WX    TMP DP  RH WIND       PRES   REMARKS
LAFAYETTE      CLEAR     36  26  67 NE5       30.31S
KOKOMO*        CLEAR     37  30  75 NE7       30.31S
MUNCIE*        CLEAR     41  34  76 NE8       30.29R
INDIANAPOLIS   CLEAR     42  34  73 NE8       30.28S

$$
MIZ043>046-050>051-056>058-064>065-071>073-077>080-191000-
SOUTHWEST LOWER MICHIGAN

CITY           SKY/WX    TMP DP  RH WIND       PRES   REMARKS
BATTLE CREEK   CLEAR     36  30  79 NE9       30.37R
BENTON HARBOR  CLEAR     36  29  75 NE9       30.35F
COLDWATER*     CLEAR     37  34  89 NE8       30.35R
HILLSDALE*     CLEAR     39  34  82 NE9       30.35R
HOLLAND        CLEAR     36  26  67 NE8       30.40R
GRAND RAPIDS   CLEAR     34  26  72 NE9       30.40S WCI  27
KALAMAZOO      CLEAR     37  30  75 NE6       30.36S
STURGIS*       CLEAR     37  34  87 NE9       30.34R
THREE RIVERS*  FAIR      39  31  74 NE6       30.36R

$$
OHZ001>008-015>018-024>025-191000-
NORTHWEST OHIO

CITY           SKY/WX    TMP DP  RH WIND       PRES   REMARKS
WAUSEON*       MOCLDY    37  32  81 NE14      30.37R
DEFIANCE       CLEAR     39  33  79 NE7       30.36R
FINDLAY        CLEAR     39  34  82 NE15      30.33R
TOLEDO EXPRESS CLEAR     37  30  75 NE10      30.36R
TOLEDO METCALF CLEAR     38  32  79 NE10      30.38R
LIMA           PTCLDY    41  37  86 NE9       30.31R

$$
&&



USA.gov is the U.S. government's official web portal to all federal, state and local government web resources and services.